Wind_Speed
26 25 24 22 22 23 23 23 23 22 21 20 21 21 22 21 20 22 21 21 20 17 16 13 13 13 12 6 4 3 12 10 8 7 5 8 4 7 5 11 7 15 10 12 16
26 26 25 24 23 23 23 23 23 22 21 21 22 22 24 21 20 19 19 18 17 16 11 11 12 11 7 9 7 9 8 6 8 6 7 3 3 4 6 5 8 15 21 26 24
28 27 26 25 24 24 24 23 22 22 22 23 23 22 23 22 22 21 14 13 10 9 9 9 8 8 7 11 10 11 14 10 12 15 9 9 10 7 5 10 11 20 21 25 25
30 28 27 25 24 23 23 24 24 23 24 24 23 22 24 21 15 13 11 12 11 11 10 8 8 8 7 7 7 16 16 20 12 23 21 16 20 14 12 16 19 21 26 29 32
31 30 26 25 25 25 26 26 26 25 24 25 24 24 23 21 21 18 15 15 14 12 12 12 11 11 10 10 10 10 16 16 12 19 23 22 18 16 19 19 23 30 31 31 35
31 30 28 27 28 29 29 29 27 25 25 26 25 26 24 21 21 15 12 13 13 12 11 11 13 16 14 16 15 17 17 20 22 20 21 18 15 16 17 18 23 28 27 24 27
34 33 33 33 32 31 30 31 29 28 27 29 27 26 24 20 21 18 15 12 12 11 10 13 13 13 16 14 20 19 22 23 20 22 23 16 19 18 10 18 24 28 30 26 28
38 37 37 36 36 34 32 32 31 30 30 28 27 27 25 24 21 22 21 19 18 15 14 16 14 14 16 16 16 15 15 19 9 8 16 19 19 18 16 22 24 25 27 30 29
42 42 38 37 38 35 34 35 34 30 29 27 27 30 28 26 25 26 25 24 22 18 15 17 19 17 17 14 13 12 14 14 12 12 21 25 20 3 3 22 23 23 28 30 34
42 45 42 39 39 39 37 34 34 35 32 28 31 31 25 26 28 24 15 13 14 14 14 16 16 16 15 14 12 10 14 20 17 5 17 20 17 14 14 14 14 15 27 33 38
31 38 42 46 44 43 39 40 38 38 38 32 31 33 32 29 24 20 18 18 20 21 17 15 17 22 18 16 10 15 22 25 21 20 12 18 22 19 16 24 22 21 28 39 41
39 29 23 25 27 33 33 32 39 40 42 38 38 37 28 30 28 22 21 17 18 17 14 17 24 19 14 14 21 22 22 24 25 25 21 23 29 26 26 26 30 33 34 41 42
23 21 22 18 27 19 25 26 32 25 35 44 33 37 28 32 36 27 26 22 22 20 21 25 21 5 19 19 21 22 23 22 24 26 24 29 40 33 31 30 28 30 32 35 41
15 21 19 19 19 20 15 17 14 13 19 30 24 25 23 28 36 29 29 27 28 27 23 23 23 24 19 22 21 28 19 20 23 20 15 12 20 31 27 22 18 30 36 42 44
14 19 22 24 21 18 19 8 8 8 5 4 14 9 14 22 20 15 21 30 34 29 18 26 10 18 28 28 20 23 17 22 23 16 20 24 13 47 24 28 26 30 37 42 45
17 16 18 23 24 21 12 11 11 6 10 7 10 9 14 16 22 13 21 34 33 32 31 30 27 22 17 19 24 25 19 19 16 13 11 24 19 32 22 21 19 28 33 34 31
21 19 19 22 24 28 23 18 11 10 5 11 10 11 13 15 22 17 19 28 30 22 32 35 38 34 28 20 15 18 14 2 4 6 8 17 16 27 11 15 15 17 25 33 30
21 22 21 19 21 15 14 20 14 15 24 9 7 11 10 16 14 20 20 18 20 20 10 15 13 30 33 35 27 24 19 13 5 4 5 21 8 8 27 30 21 19 23 24 28
28 26 25 22 19 17 21 30 16 23 8 3 19 13 17 13 21 19 23 21 13 24 13 8 20 16 21 27 24 21 28 22 25 18 1 8 22 26 10 6 6 5 13 22 26
25 30 28 23 24 26 30 39 34 20 4 11 8 8 24 21 20 19 23 11 22 19 24 16 14 13 19 24 16 23 15 10 5 2 4 6 11 9 8 1 2 7 7 19 21
27 30 33 27 25 24 39 42 29 34 15 7 16 17 15 10 7 11 4 12 12 11 15 14 7 14 4 17 14 11 14 19 12 7 4 2 7 9 9 17 28 16 19 14 17
36 37 31 32 30 35 38 42 38 20 19 19 20 16 19 13 10 9 4 2 8 9 11 4 8 5 15 5 9 16 10 11 14 9 11 13 21 26 22 21 23 22 16 24 26
40 41 41 35 36 36 38 38 37 33 25 20 23 22 22 19 10 13 9 8 14 13 5 4 5 5 15 20 18 11 7 7 17 19 26 13 18 19 28 23 28 30 25 26 23
48 45 32 36 38 41 38 37 37 27 33 29 21 23 20 23 26 18 24 8 12 13 13 11 14 13 9 17 21 27 24 19 20 20 23 26 28 36 32 28 24 22 29 31 31
45 45 46 33 44 44 41 41 38 41 30 25 20 23 17 15 17 25 31 20 16 16 16 17 22 25 27 30 28 24 27 28 29 28 25 24 25 30 33 32 25 25 21 24 26
49 42 42 57 46 44 42 39 38 26 25 24 25 25 17 21 18 21 18 18 22 18 27 24 26 21 24 24 18 19 26 35 36 33 32 31 32 29 28 22 24 19 19 23 27
53 55 49 42 51 43 42 43 39 24 20 25 26 30 27 23 23 24 26 21 22 19 15 17 24 16 28 15 13 16 36 34 38 31 28 28 28 25 29 25 28 31 29 27 28
Wind_Direction
259 263 265 268 271 275 278 282 285 289 291 293 294 296 295 295 293 292 291 289 286 282 279 279 264 249 240 186 189 276 242 250 301 16 113 146 203 206 230 206 206 218 253 237 232
258 262 266 269 272 275 278 281 285 288 291 294 294 297 296 296 296 294 289 291 288 284 288 280 276 270 235 197 159 242 245 276 306 254 144 148 111 162 204 176 235 253 244 251 253
258 260 264 269 273 276 279 281 284 289 291 292 293 295 299 296 298 292 293 285 290 292 285 276 263 244 220 203 183 226 250 245 290 275 218 164 197 241 220 199 208 225 236 250 256
258 260 264 267 271 273 276 279 283 286 289 289 290 290 298 296 297 278 292 288 290 287 280 273 263 251 236 195 178 251 245 248 292 274 269 252 249 223 239 228 235 240 243 257 270
255 258 260 266 270 272 273 277 280 284 286 287 288 290 292 291 286 285 277 278 278 275 269 260 258 249 229 192 240 239 247 243 275 274 271 267 256 238 234 238 238 244 248 256 266
254 258 261 267 270 273 274 274 278 280 284 286 286 284 290 290 286 288 277 276 277 272 261 248 232 237 244 221 228 227 236 240 226 249 267 274 267 257 254 230 243 260 262 259 265
254 259 262 266 269 272 273 273 275 276 280 283 284 282 279 288 286 285 287 284 281 271 266 262 265 250 251 240 231 244 249 257 258 257 261 261 264 271 285 241 244 253 266 272 273
253 259 261 265 266 271 269 272 272 277 275 276 281 280 276 282 275 275 276 280 277 277 270 270 267 255 250 254 251 260 259 270 289 263 256 239 259 302 262 233 226 240 267 273 268
253 259 257 264 269 265 268 274 272 275 269 270 279 281 282 277 275 267 270 272 272 265 264 260 261 256 247 239 252 247 262 274 295 269 245 221 248 238 237 208 236 251 272 269 273
252 253 257 267 266 274 277 277 273 273 269 269 276 283 276 273 274 269 267 262 262 261 259 256 249 241 228 226 227 248 262 285 284 228 236 241 247 253 246 241 249 255 262 259 265
257 247 254 254 258 268 268 278 275 270 266 265 271 278 276 272 267 267 257 259 258 258 249 242 243 245 251 244 257 282 276 281 268 252 273 256 263 263 241 237 243 255 270 255 261
304 308 285 263 260 257 254 261 263 266 270 265 271 272 261 262 261 257 257 244 235 236 239 236 244 253 257 228 257 263 264 260 258 255 275 277 270 259 256 256 263 256 257 253 263
298 297 302 293 302 275 262 260 259 274 274 272 269 269 262 251 259 255 245 240 242 252 245 245 244 264 259 256 255 259 268 275 273 280 270 279 272 266 266 272 278 254 251 252 256
261 253 251 256 271 279 266 259 251 275 292 286 282 274 245 233 254 258 234 236 239 244 234 253 250 230 237 242 254 258 251 259 277 280 284 258 288 275 271 264 272 250 239 243 249
264 249 246 237 235 231 259 236 233 268 305 309 224 240 223 228 253 261 221 220 234 239 220 230 227 236 245 247 249 262 271 259 267 264 273 265 265 279 284 273 272 257 242 238 245
236 238 244 244 227 218 206 188 189 188 248 219 235 230 235 229 221 235 199 211 224 229 226 233 235 224 242 253 252 252 256 250 259 269 261 256 228 272 284 301 267 240 234 240 252
248 240 232 235 230 224 195 182 167 208 201 214 225 241 237 229 219 226 226 223 221 218 235 238 236 232 240 243 221 239 218 278 262 203 234 277 256 248 309 332 303 274 260 259 256
240 244 242 240 244 240 214 184 208 222 220 139 204 258 222 200 230 220 245 244 225 222 259 238 245 236 234 238 232 231 215 198 209 207 269 283 263 288 305 294 298 266 259 255 257
236 235 242 231 231 217 204 197 219 214 169 308 229 249 233 232 221 206 231 240 252 216 217 251 235 260 233 234 221 221 218 233 242 267 294 262 278 292 305 32 135 181 235 234 253
237 234 232 236 230 205 205 223 230 199 209 240 265 241 248 251 239 226 213 219 232 232 218 256 283 270 217 220 209 222 238 252 243 122 239 245 282 275 300 36 166 199 224 228 231
248 244 230 218 225 214 215 227 238 235 225 250 244 254 259 284 253 213 217 207 240 221 237 241 252 241 205 201 203 222 254 251 270 266 201 277 252 268 263 318 319 303 291 284 284
234 240 241 216 203 220 237 237 236 224 219 243 246 251 255 256 280 238 226 185 187 213 227 242 243 289 249 215 243 240 256 278 228 264 261 251 261 275 302 307 309 298 292 300 302
232 235 236 229 221 227 239 246 249 244 209 224 233 243 244 263 284 273 268 268 249 260 261 216 212 245 277 261 238 269 263 291 265 284 257 246 264 263 285 296 296 306 307 291 290
226 225 212 228 238 241 240 241 243 243 238 232 249 248 256 241 242 253 260 287 296 284 259 264 255 262 268 278 286 293 292 299 277 276 285 279 288 286 293 306 305 305 299 285 281
232 224 228 210 237 235 235 244 247 244 236 215 232 236 227 245 238 245 247 244 256 277 280 269 272 277 279 276 270 279 281 276 273 282 284 292 293 292 301 306 305 299 292 273 274
233 220 235 233 237 236 231 238 237 239 236 231 221 226 232 234 240 243 244 237 247 267 255 263 268 273 266 267 272 277 259 260 269 277 285 291 289 291 295 292 297 307 299 285 287
234 225 232 228 230 230 233 233 232 221 219 222 229 231 239 227 235 239 247 244 241 237 244 241 248 253 262 264 277 276 259 264 267 273 275 283 288 297 296 294 290 293 296 297 294
Height
3150 3151 3153 3153 3154 3154 3154 3153 3153 3153 3152 3152 3150 3150 3149 3149 3147 3146 3146 3145 3145 3144 3144 3145 3145 3145 3147 3148 3151 3153 3154 3153 3155 3153 3154 3155 3153 3154 3153 3155 3157 3157 3155 3157 3157
3146 3147 3149 3150 3150 3150 3150 3150 3149 3149 3149 3148 3147 3146 3145 3144 3142 3143 3142 3140 3141 3141 3141 3142 3143 3143 3145 3146 3146 3150 3151 3152 3154 3154 3152 3154 3155 3152 3152 3155 3157 3153 3153 3152 3153
3141 3142 3143 3145 3146 3146 3146 3146 3146 3146 3146 3144 3143 3143 3141 3141 3139 3139 3138 3138 3139 3138 3138 3140 3140 3141 3142 3144 3145 3147 3147 3150 3150 3149 3150 3151 3153 3153 3150 3151 3153 3149 3148 3147 3149
3136 3137 3138 3140 3140 3141 3142 3142 3142 3141 3142 3141 3139 3139 3138 3137 3138 3134 3136 3136 3135 3136 3137 3138 3138 3139 3140 3141 3143 3145 3145 3146 3147 3144 3145 3148 3148 3149 3148 3147 3149 3148 3146 3145 3144
3130 3131 3133 3135 3135 3136 3137 3137 3137 3137 3137 3136 3135 3135 3135 3133 3133 3133 3132 3132 3132 3133 3134 3134 3136 3136 3137 3137 3139 3139 3141 3140 3142 3142 3141 3142 3143 3145 3146 3142 3144 3143 3144 3144 3141
3125 3126 3128 3129 3130 3131 3132 3132 3133 3133 3133 3132 3131 3131 3131 3130 3129 3130 3130 3129 3130 3131 3130 3131 3131 3131 3133 3134 3135 3135 3135 3135 3135 3136 3138 3137 3138 3139 3141 3142 3139 3137 3137 3140 3138
3118 3120 3121 3124 3125 3125 3126 3127 3128 3128 3128 3127 3125 3125 3126 3127 3126 3126 3126 3127 3127 3128 3127 3128 3128 3129 3130 3131 3131 3131 3132 3132 3132 3133 3134 3135 3135 3134 3137 3137 3136 3133 3131 3132 3131
3111 3113 3116 3116 3118 3119 3120 3122 3122 3122 3122 3121 3120 3119 3119 3121 3122 3121 3121 3123 3124 3124 3124 3125 3125 3126 3126 3129 3129 3129 3128 3127 3130 3128 3128 3132 3130 3132 3132 3132 3134 3132 3128 3124 3124
3103 3105 3108 3110 3110 3111 3113 3115 3116 3116 3116 3116 3115 3114 3114 3116 3115 3116 3117 3117 3119 3120 3121 3121 3122 3123 3123 3123 3126 3126 3124 3124 3125 3123 3123 3127 3128 3129 3125 3128 3131 3130 3126 3121 3118
3094 3096 3098 3100 3103 3104 3106 3109 3109 3109 3109 3110 3109 3112 3108 3112 3109 3112 3113 3112 3114 3115 3115 3118 3119 3117 3119 3120 3120 3122 3123 3123 3123 3125 3123 3123 3125 3127 3126 3126 3127 3128 3120 3115 3109
3086 3087 3089 3091 3093 3096 3099 3103 3104 3102 3101 3104 3103 3105 3103 3104 3105 3107 3107 3108 3109 3110 3111 3113 3114 3112 3116 3117 3116 3120 3120 3119 3119 3121 3122 3122 3121 3123 3123 3122 3122 3124 3118 3108 3102
3079 3083 3083 3084 3086 3088 3091 3095 3091 3094 3090 3094 3095 3092 3098 3098 3097 3102 3103 3105 3104 3105 3107 3109 3104 3111 3112 3113 3115 3115 3113 3115 3114 3115 3115 3114 3111 3114 3116 3115 3116 3117 3112 3105 3102
3071 3075 3077 3082 3084 3082 3083 3087 3085 3090 3083 3077 3086 3083 3091 3094 3089 3096 3097 3100 3098 3099 3102 3101 3101 3106 3108 3109 3110 3110 3109 3111 3112 3114 3112 3108 3099 3103 3107 3108 3109 3107 3105 3102 3099
3065 3068 3070 3073 3078 3078 3077 3081 3085 3087 3082 3069 3074 3072 3079 3083 3080 3088 3091 3093 3092 3092 3098 3096 3098 3098 3102 3102 3106 3104 3108 3109 3109 3108 3106 3109 3097 3097 3101 3101 3100 3100 3096 3093 3093
3060 3063 3063 3064 3069 3070 3076 3080 3084 3085 3085 3072 3066 3071 3071 3076 3079 3081 3085 3085 3084 3088 3093 3088 3093 3095 3095 3097 3099 3097 3103 3103 3103 3104 3102 3102 3106 3081 3091 3091 3094 3091 3090 3085 3085
3051 3055 3059 3062 3064 3066 3071 3076 3081 3087 3074 3066 3066 3066 3069 3071 3074 3074 3078 3079 3079 3083 3084 3083 3088 3088 3089 3091 3093 3096 3097 3097 3099 3102 3098 3095 3099 3080 3086 3085 3085 3085 3082 3081 3084
3048 3049 3051 3054 3058 3059 3063 3071 3079 3076 3066 3064 3062 3062 3064 3065 3068 3072 3076 3075 3076 3079 3078 3079 3078 3081 3084 3086 3088 3090 3092 3096 3097 3097 3091 3089 3089 3083 3085 3080 3080 3081 3081 3079 3078
3043 3045 3046 3050 3052 3057 3060 3067 3067 3055 3058 3060 3063 3061 3060 3061 3063 3067 3072 3074 3073 3072 3075 3073 3071 3073 3074 3074 3081 3082 3087 3088 3089 3088 3085 3083 3080 3080 3078 3074 3072 3073 3074 3075 3073
3037 3038 3041 3044 3049 3053 3058 3058 3050 3049 3055 3056 3059 3060 3062 3062 3061 3061 3065 3069 3071 3069 3072 3070 3067 3068 3066 3070 3076 3079 3080 3083 3081 3081 3080 3080 3077 3081 3077 3073 3073 3072 3075 3073 3072
3030 3032 3034 3038 3040 3044 3051 3043 3044 3048 3051 3053 3055 3055 3060 3062 3059 3057 3060 3061 3065 3067 3068 3066 3066 3064 3064 3066 3070 3073 3078 3079 3077 3079 3080 3072 3074 3073 3074 3075 3076 3074 3072 3071 3071
3023 3024 3028 3032 3034 3037 3034 3034 3040 3043 3049 3052 3052 3051 3050 3056 3056 3051 3054 3057 3057 3059 3060 3061 3064 3062 3062 3064 3066 3069 3070 3074 3074 3075 3073 3073 3068 3068 3069 3072 3072 3073 3072 3069 3068
3014 3017 3021 3025 3026 3025 3026 3029 3035 3037 3043 3047 3048 3048 3047 3050 3054 3054 3050 3050 3053 3055 3060 3059 3059 3060 3061 3064 3065 3066 3067 3069 3070 3071 3070 3067 3063 3069 3068 3067 3068 3066 3066 3065 3063
3003 3009 3010 3017 3018 3019 3022 3025 3029 3035 3038 3041 3043 3044 3047 3047 3050 3052 3050 3048 3050 3054 3056 3058 3057 3059 3057 3061 3061 3060 3059 3063 3065 3065 3064 3065 3059 3062 3063 3065 3062 3060 3058 3055 3054
2996 2999 2999 3002 3009 3014 3015 3019 3023 3030 3033 3036 3039 3042 3043 3044 3046 3049 3048 3047 3049 3051 3054 3056 3055 3056 3057 3058 3057 3055 3055 3060 3061 3060 3059 3058 3058 3054 3055 3056 3055 3053 3051 3049 3048
2983 2981 2989 2991 2996 3003 3009 3012 3017 3020 3028 3031 3033 3036 3040 3041 3042 3044 3043 3046 3049 3049 3050 3051 3050 3051 3050 3049 3052 3053 3054 3052 3052 3055 3055 3051 3053 3053 3050 3048 3046 3044 3043 3042 3041
2973 2972 2981 2985 2992 2996 3003 3006 3009 3014 3020 3023 3027 3031 3037 3036 3038 3039 3041 3041 3044 3047 3046 3046 3045 3046 3043 3044 3047 3049 3046 3045 3044 3046 3048 3046 3044 3048 3046 3041 3038 3037 3037 3037 3035
2963 2964 2973 2977 2982 2988 2992 2993 3003 3011 3014 3017 3023 3027 3029 3032 3035 3034 3036 3037 3038 3041 3042 3041 3041 3042 3038 3041 3046 3044 3031 3039 3038 3039 3041 3041 3039 3040 3037 3034 3032 3031 3031 3032 3029